Location: Newark
(41.9831°N, 91.6686°W)
Time: 03:05:54
(UTC+00:00)

ISS - Pass Details

Date: 31 October 2019
Orbit: 412 x 421 km, 51.6° (Epoch: 14 November)

Event Time Altitude Azimuth Distance (km) Brightness Sun altitude
Exits shadow 11:43:16 12° 313° (NW) 1,381 -1.6 -10.7°
Maximum altitude 11:45:08 17° 350° (N) 1,133 -1.8 -10.3°
Drops below altitude 10° 11:47:30 10° 35° (NE) 1,507 -0.6 -9.9°
Sets 11:50:07 0° 56° (NE) 2,371 0.8 -9.4°
